Location: Stuttgart
(48.8069°N, 9.1544°E)
Time: 09:03:28
(UTC+01:00)

ISS - Visible Passes

Search period start: 17 February 2019 00:00
Search period end: 27 February 2019 00:00
Orbit: 403 x 411 km, 51.6° (Epoch: 17 February)

Date Brightness Start Highest point End Pass type
(mag) Time Alt. Az. Time Alt. Az. Time Alt. Az.
23 Feb -1.1 06:33:47 10° S 06:36:10 19° SE 06:38:33 10° E visible
24 Feb -0.8 05:43:44 10° SSE 05:44:54 11° SE 05:46:04 10° ESE visible
25 Feb -2.4 06:26:24 10° SW 06:29:26 36° SSE 06:32:29 10° E visible
26 Feb -1.7 05:35:45 12° SSW 05:38:03 23° SE 05:40:44 10° E visible
